Flag for Germany Weather past 2 weeks in Minden, North Rhine-Westphalia, Germany

Now
48 °F

Passing clouds.


Feels Like: 44 °F
Forecast: 47 / 56 °F
Wind: 9 mph from Northwest

Location: Bueckeburg

Current Time: Oct 23, 2014 at 4:38:45 AM

Latest Report: Oct 23, 2014 at 3:20 AM


Visibility: N/A

Pressure: 30.12 "Hg

Humidity: 82%

Dew point: 43 °F

Location of MindenLocation

Historic Weather in Minden — Graph

°F

Minden temperature yesterday

Maximum temperature yesterday: 52 °F (at 3:20 PM)
Minimum temperature yesterday: 46 °F (at 2:20 AM)
Average temperature yesterday: 49 °F

Past Weeks' High & Low Weather Summary

 TemperatureHumidityPressure
High73 °F (Oct 19, 2:20 PM)100% (Oct 11, 2:20 AM)30.15 "Hg (Oct 11, 2:20 AM)
Low46 °F (Oct 22, 2:20 AM)49% (Oct 14, 4:20 PM)29.42 "Hg (Oct 21, 5:20 PM)
Average57 °F82%29.83 "Hg
* Reported Oct 8 3:20 AM — Oct 23 3:20 AM, Minden, Weather by CustomWeather, © 2014

Note: Actual official high and low records may vary slightly from our data, if they occured in-between our weather recording intervals... More about our weather records

Advertising

Minden weather history for previous 24 hours

 ConditionsComfort  
Time TempWeatherWind HumidityBarometerVisibility
3:20 AM
Oct 23
48 °FPassing clouds.9 mph82%30.12 "HgN/A
2:20 AM50 °FPassing clouds.8 mph71%30.09 "HgN/A
1:20 AM50 °FPassing clouds.10 mph71%30.09 "HgN/A
12:20 AM50 °FPassing clouds.10 mph71%30.09 "HgN/A
11:20 PM
Oct 22
50 °FPassing clouds.9 mph71%30.09 "HgN/A
10:20 PM50 °FPassing clouds.10 mph71%30.07 "HgN/A
9:20 PM50 °FPassing clouds.13 mph76%30.07 "HgN/A
8:20 PM50 °FOvercast.14 mph76%30.01 "HgN/A
7:20 PM52 °FDrizzle. Overcast.12 mph67%30.01 "Hg6 mi
6:20 PM52 °FOvercast.16 mph72%29.98 "HgN/A
5:20 PM52 °FPartly sunny.17 mph72%29.92 "HgN/A
4:20 PM52 °FPartly sunny.21 mph72%29.89 "HgN/A
3:20 PM52 °FPartly sunny.23 mph72%29.86 "HgN/A
2:20 PM50 °FDrizzle. Partly sunny.18 mph82%29.83 "Hg5 mi
1:20 PM48 °FDrizzle. Partly sunny.24 mph82%29.80 "Hg5 mi
12:20 PM48 °FDrizzle. Partly sunny.23 mph82%29.80 "HgN/A
11:20 AM46 °FDrizzle. More clouds than sun.26 mph87%29.77 "Hg5 mi
10:45 AM46 °FDrizzle. Mostly cloudy.23 mph87%29.77 "HgN/A
10:20 AM46 °FDrizzle. Mostly cloudy.24 mph87%29.77 "HgN/A
9:20 AM46 °FDrizzle. Partly sunny.18 mph87%29.77 "HgN/A
8:20 AM46 °FPassing clouds.21 mph82%29.77 "HgN/A
7:20 AM48 °FSprinkles. Passing clouds.20 mph76%29.74 "HgN/A
6:20 AM48 °FPassing clouds.20 mph82%29.71 "HgN/A
5:20 AM48 °FPartly cloudy.22 mph87%29.68 "Hg5 mi
4:20 AM46 °FLight rain. Partly cloudy.18 mph93%29.68 "Hg5 mi
Weather by CustomWeather, © 2014

See weather overviewHow to use our weather pages